Time,TemperatureF,DewpointF,PressureIn,WindDirection,WindDirectionDegrees,WindSpeedMPH,WindSpeedGustMPH,Humidity,HourlyPrecipIn,Conditions,Clouds,dailyrainin,SolarRadiationWatts/m^2,SoftwareType,DateUTC
2013-08-13 00:00:00,61.3,59.0,30.01,East,86,3.0,8.0,91,0.00,,,0.04,0,weatherlink.com 1.10,2013-08-13 05:00:00,
2013-08-13 00:15:00,61.4,59.0,30.02,East,82,2.0,7.0,91,0.00,,,0.00,0,weatherlink.com 1.10,2013-08-13 05:15:00,
2013-08-13 00:30:00,61.1,57.0,30.02,NE,55,3.0,7.0,87,0.00,,,0.00,0,weatherlink.com 1.10,2013-08-13 05:30:00,
2013-08-13 00:45:00,60.4,56.0,30.02,ENE,61,3.0,11.0,84,0.00,,,0.00,0,weatherlink.com 1.10,2013-08-13 05:45:00,
2013-08-13 01:00:00,59.6,54.0,30.03,NE,49,2.0,4.0,83,0.00,,,0.00,0,weatherlink.com 1.10,2013-08-13 06:00:00,
2013-08-13 01:15:00,58.8,54.0,30.03,ENE,68,0.0,3.0,83,0.00,,,0.00,0,weatherlink.com 1.10,2013-08-13 06:15:00,
2013-08-13 01:30:00,57.6,53.0,30.03,ENE,76,0.0,2.0,85,0.00,,,0.00,0,weatherlink.com 1.10,2013-08-13 06:30:00,
2013-08-13 01:45:00,56.9,53.0,30.03,East,79,0.0,3.0,86,0.00,,,0.00,0,weatherlink.com 1.10,2013-08-13 06:45:00,
2013-08-13 02:00:00,56.2,52.0,30.03,East,80,0.0,1.0,87,0.00,,,0.00,0,weatherlink.com 1.10,2013-08-13 07:00:00,
2013-08-13 02:15:00,55.5,52.0,30.04,East,80,0.0,0.0,89,0.00,,,0.00,0,weatherlink.com 1.10,2013-08-13 07:15:00,
2013-08-13 02:30:00,54.9,52.0,30.04,East,80,0.0,0.0,90,0.00,,,0.00,0,weatherlink.com 1.10,2013-08-13 07:30:00,
2013-08-13 02:45:00,54.4,51.0,30.04,East,80,0.0,1.0,89,0.00,,,0.00,0,weatherlink.com 1.10,2013-08-13 07:45:00,
2013-08-13 03:00:00,53.5,50.0,30.04,East,80,0.0,0.0,89,0.00,,,0.00,0,weatherlink.com 1.10,2013-08-13 08:00:00,
2013-08-13 03:15:00,52.9,50.0,30.05,North,355,0.0,2.0,89,0.00,,,0.00,0,weatherlink.com 1.10,2013-08-13 08:15:00,
2013-08-13 03:30:00,52.7,49.0,30.05,North,355,1.0,5.0,87,0.00,,,0.00,0,weatherlink.com 1.10,2013-08-13 08:30:00,
2013-08-13 03:45:00,52.1,48.0,30.05,NNW,346,0.0,4.0,87,0.00,,,0.00,0,weatherlink.com 1.10,2013-08-13 08:45:00,
2013-08-13 04:01:00,51.4,48.0,30.05,NNW,346,0.0,3.0,87,0.00,,,0.00,0,weatherlink.com 1.10,2013-08-13 09:01:00,
2013-08-13 04:16:00,51.0,47.0,30.06,North,360,0.0,4.0,87,0.00,,,0.00,0,weatherlink.com 1.10,2013-08-13 09:16:00,
2013-08-13 04:31:00,50.7,47.0,30.06,NNW,346,0.0,3.0,88,0.00,,,0.00,0,weatherlink.com 1.10,2013-08-13 09:31:00,
2013-08-13 04:46:00,50.4,47.0,30.06,NNW,338,0.0,3.0,88,0.00,,,0.00,0,weatherlink.com 1.10,2013-08-13 09:46:00,
2013-08-13 05:01:00,50.1,47.0,30.06,North,355,3.0,5.0,89,0.00,,,0.00,0,weatherlink.com 1.10,2013-08-13 10:01:00,
2013-08-13 05:16:00,49.7,47.0,30.07,North,360,3.0,5.0,89,0.00,,,0.00,0,weatherlink.com 1.10,2013-08-13 10:16:00,
2013-08-13 05:31:00,49.5,46.0,30.07,North,9,0.0,6.0,89,0.00,,,0.00,0,weatherlink.com 1.10,2013-08-13 10:31:00,
2013-08-13 05:46:00,49.3,46.0,30.07,North,350,1.0,4.0,89,0.00,,,0.00,0,weatherlink.com 1.10,2013-08-13 10:46:00,
2013-08-13 06:01:00,49.3,46.0,30.08,North,351,2.0,4.0,89,0.00,,,0.00,0,weatherlink.com 1.10,2013-08-13 11:01:00,
2013-08-13 06:16:00,49.5,46.0,30.09,North,360,4.0,5.0,89,0.00,,,0.00,12,weatherlink.com 1.10,2013-08-13 11:16:00,
2013-08-13 06:31:00,50.1,47.0,30.10,NNW,348,0.0,5.0,89,0.00,,,0.00,19,weatherlink.com 1.10,2013-08-13 11:31:00,
2013-08-13 06:46:00,51.1,48.0,30.10,NNW,348,0.0,3.0,88,0.00,,,0.00,40,weatherlink.com 1.10,2013-08-13 11:46:00,
2013-08-13 07:01:00,52.2,49.0,30.11,NNW,346,3.0,4.0,87,0.00,,,0.00,76,weatherlink.com 1.10,2013-08-13 12:01:00,
2013-08-13 07:16:00,53.5,50.0,30.11,NNW,345,1.0,5.0,87,0.00,,,0.00,125,weatherlink.com 1.10,2013-08-13 12:16:00,
2013-08-13 07:31:00,54.6,51.0,30.11,NNW,332,1.0,5.0,87,0.00,,,0.00,178,weatherlink.com 1.10,2013-08-13 12:31:00,
2013-08-13 07:46:00,55.3,50.0,30.11,North,350,1.0,6.0,83,0.00,,,0.00,221,weatherlink.com 1.10,2013-08-13 12:46:00,
2013-08-13 08:01:00,56.0,51.0,30.12,North,9,1.0,5.0,83,0.00,,,0.00,267,weatherlink.com 1.10,2013-08-13 13:01:00,
2013-08-13 08:17:00,57.1,51.0,30.12,North,350,4.0,7.0,81,0.00,,,0.00,313,weatherlink.com 1.10,2013-08-13 13:17:00,
2013-08-13 08:32:00,58.0,51.0,30.12,North,5,1.0,8.0,77,0.00,,,0.00,348,weatherlink.com 1.10,2013-08-13 13:32:00,
2013-08-13 08:47:00,58.5,50.0,30.13,NNE,15,3.0,8.0,74,0.00,,,0.00,404,weatherlink.com 1.10,2013-08-13 13:47:00,
2013-08-13 09:02:00,59.4,51.0,30.13,NNE,22,2.0,7.0,74,0.00,,,0.00,457,weatherlink.com 1.10,2013-08-13 14:02:00,
2013-08-13 09:17:00,60.0,51.0,30.14,NNE,15,3.0,8.0,71,0.00,,,0.00,499,weatherlink.com 1.10,2013-08-13 14:17:00,
2013-08-13 09:32:00,60.5,52.0,30.14,North,360,6.0,7.0,73,0.00,,,0.00,538,weatherlink.com 1.10,2013-08-13 14:32:00,
2013-08-13 09:47:00,61.4,52.0,30.14,North,5,3.0,7.0,70,0.00,,,0.00,577,weatherlink.com 1.10,2013-08-13 14:47:00,
2013-08-13 10:02:00,61.5,52.0,30.13,NNE,15,1.0,10.0,70,0.00,,,0.00,613,weatherlink.com 1.10,2013-08-13 15:02:00,
2013-08-13 10:17:00,62.3,53.0,30.13,North,9,7.0,8.0,71,0.00,,,0.00,680,weatherlink.com 1.10,2013-08-13 15:17:00,
2013-08-13 10:32:00,62.6,51.0,30.13,North,355,6.0,10.0,67,0.00,,,0.00,694,weatherlink.com 1.10,2013-08-13 15:32:00,
2013-08-13 10:47:00,63.5,53.0,30.14,North,355,0.0,11.0,68,0.00,,,0.00,722,weatherlink.com 1.10,2013-08-13 15:47:00,
2013-08-13 11:02:00,64.7,54.0,30.14,NNW,348,3.0,8.0,69,0.00,,,0.00,835,weatherlink.com 1.10,2013-08-13 16:02:00,
2013-08-13 11:17:00,64.2,51.0,30.14,North,355,3.0,12.0,62,0.00,,,0.00,807,weatherlink.com 1.10,2013-08-13 16:17:00,
2013-08-13 11:32:00,64.6,53.0,30.14,North,5,7.0,10.0,66,0.00,,,0.00,893,weatherlink.com 1.10,2013-08-13 16:32:00,
2013-08-13 11:47:00,64.8,53.0,30.14,NNW,342,4.0,9.0,65,0.00,,,0.00,881,weatherlink.com 1.10,2013-08-13 16:47:00,
2013-08-13 12:02:00,66.7,56.0,30.14,NNW,348,6.0,8.0,69,0.00,,,0.00,997,weatherlink.com 1.10,2013-08-13 17:02:00,
2013-08-13 12:17:00,65.8,53.0,30.14,North,360,5.0,9.0,64,0.00,,,0.00,1037,weatherlink.com 1.10,2013-08-13 17:17:00,
2013-08-13 12:32:00,65.4,53.0,30.15,North,5,7.0,9.0,64,0.00,,,0.00,308,weatherlink.com 1.10,2013-08-13 17:32:00,
2013-08-13 12:47:00,66.6,53.0,30.15,NNW,336,3.0,11.0,62,0.00,,,0.00,1002,weatherlink.com 1.10,2013-08-13 17:47:00,
2013-08-13 13:03:00,67.3,55.0,30.14,NW,322,2.0,9.0,64,0.00,,,0.00,197,weatherlink.com 1.10,2013-08-13 18:03:00,
2013-08-13 13:18:00,68.4,52.0,30.14,NE,53,3.0,10.0,56,0.00,,,0.00,1004,weatherlink.com 1.10,2013-08-13 18:18:00,
2013-08-13 13:33:00,67.8,54.0,30.14,WNW,299,5.0,8.0,62,0.00,,,0.00,258,weatherlink.com 1.10,2013-08-13 18:33:00,
2013-08-13 13:48:00,67.9,56.0,30.14,North,355,5.0,9.0,65,0.00,,,0.00,1016,weatherlink.com 1.10,2013-08-13 18:48:00,
2013-08-13 14:03:00,69.1,55.0,30.14,NW,315,7.0,11.0,61,0.00,,,0.00,446,weatherlink.com 1.10,2013-08-13 19:03:00,
2013-08-13 14:18:00,68.4,56.0,30.14,NNW,345,3.0,8.0,64,0.00,,,0.00,408,weatherlink.com 1.10,2013-08-13 19:18:00,
2013-08-13 14:33:00,68.6,52.0,30.13,NW,321,5.0,10.0,56,0.00,,,0.00,373,weatherlink.com 1.10,2013-08-13 19:33:00,
2013-08-13 14:48:00,67.8,52.0,30.13,NNW,327,3.0,8.0,58,0.00,,,0.00,348,weatherlink.com 1.10,2013-08-13 19:48:00,
2013-08-13 15:03:00,67.3,53.0,30.13,North,5,6.0,9.0,60,0.00,,,0.00,288,weatherlink.com 1.10,2013-08-13 20:03:00,
2013-08-13 15:18:00,67.6,54.0,30.13,NNW,327,6.0,9.0,63,0.00,,,0.00,246,weatherlink.com 1.10,2013-08-13 20:18:00,
2013-08-13 15:33:00,69.7,54.0,30.13,WNW,292,5.0,8.0,58,0.00,,,0.00,396,weatherlink.com 1.10,2013-08-13 20:33:00,
2013-08-13 15:48:00,68.9,58.0,30.12,North,355,2.0,8.0,69,0.00,,,0.00,793,weatherlink.com 1.10,2013-08-13 20:48:00,
2013-08-13 16:03:00,70.5,56.0,30.12,NNW,333,3.0,10.0,61,0.00,,,0.00,969,weatherlink.com 1.10,2013-08-13 21:03:00,
2013-08-13 16:18:00,69.3,54.0,30.12,WNW,301,4.0,12.0,59,0.00,,,0.00,232,weatherlink.com 1.10,2013-08-13 21:18:00,
2013-08-13 16:33:00,67.3,52.0,30.12,North,11,2.0,6.0,59,0.00,,,0.00,155,weatherlink.com 1.10,2013-08-13 21:33:00,
2013-08-13 16:48:00,66.3,51.0,30.12,North,9,4.0,8.0,59,0.00,,,0.00,149,weatherlink.com 1.10,2013-08-13 21:48:00,
2013-08-13 17:03:00,65.9,52.0,30.12,North,5,4.0,5.0,62,0.00,,,0.00,171,weatherlink.com 1.10,2013-08-13 22:03:00,
2013-08-13 17:18:00,65.8,53.0,30.12,North,349,1.0,6.0,64,0.00,,,0.00,151,weatherlink.com 1.10,2013-08-13 22:18:00,
2013-08-13 17:33:00,65.9,54.0,30.12,NNW,333,0.0,4.0,66,0.00,,,0.00,200,weatherlink.com 1.10,2013-08-13 22:33:00,
2013-08-13 17:48:00,66.4,54.0,30.12,North,5,2.0,5.0,64,0.00,,,0.00,281,weatherlink.com 1.10,2013-08-13 22:48:00,
2013-08-13 18:02:00,66.1,54.0,30.12,NNE,18,1.0,4.0,65,0.00,,,0.00,185,weatherlink.com 1.10,2013-08-13 23:02:00,
2013-08-13 18:17:00,67.0,54.0,30.12,North,360,1.0,6.0,63,0.00,,,0.00,109,weatherlink.com 1.10,2013-08-13 23:17:00,
2013-08-13 18:32:00,66.0,53.0,30.13,North,5,3.0,6.0,64,0.00,,,0.00,86,weatherlink.com 1.10,2013-08-13 23:32:00,
2013-08-13 18:48:00,64.9,53.0,30.13,North,9,0.0,7.0,66,0.00,,,0.00,77,weatherlink.com 1.10,2013-08-13 23:48:00,
2013-08-13 19:03:00,64.5,53.0,30.13,North,11,3.0,4.0,67,0.00,,,0.00,58,weatherlink.com 1.10,2013-08-14 00:03:00,
2013-08-13 19:18:00,63.4,53.0,30.13,North,355,0.0,2.0,68,0.00,,,0.00,32,weatherlink.com 1.10,2013-08-14 00:18:00,
2013-08-13 19:33:00,62.4,52.0,30.13,North,355,0.0,1.0,70,0.00,,,0.00,16,weatherlink.com 1.10,2013-08-14 00:33:00,
2013-08-13 19:48:00,61.7,53.0,30.13,North,355,0.0,0.0,72,0.00,,,0.00,11,weatherlink.com 1.10,2013-08-14 00:48:00,
2013-08-13 20:03:00,61.0,52.0,30.14,North,360,0.0,2.0,73,0.00,,,0.00,0,weatherlink.com 1.10,2013-08-14 01:03:00,
2013-08-13 20:18:00,60.5,53.0,30.14,North,355,0.0,1.0,75,0.00,,,0.00,0,weatherlink.com 1.10,2013-08-14 01:18:00,
2013-08-13 20:33:00,60.1,52.0,30.14,North,355,0.0,0.0,75,0.00,,,0.00,0,weatherlink.com 1.10,2013-08-14 01:33:00,
2013-08-13 20:48:00,59.4,53.0,30.14,North,355,0.0,0.0,78,0.00,,,0.00,0,weatherlink.com 1.10,2013-08-14 01:48:00,
2013-08-13 21:03:00,58.7,52.0,30.15,North,355,0.0,0.0,77,0.00,,,0.00,0,weatherlink.com 1.10,2013-08-14 02:03:00,
2013-08-13 21:18:00,58.0,51.0,30.15,North,355,0.0,0.0,78,0.00,,,0.00,0,weatherlink.com 1.10,2013-08-14 02:18:00,
2013-08-13 21:33:00,57.3,51.0,30.15,North,355,0.0,0.0,79,0.00,,,0.00,0,weatherlink.com 1.10,2013-08-14 02:33:00,
2013-08-13 21:48:00,56.7,51.0,30.16,North,355,0.0,0.0,80,0.00,,,0.00,0,weatherlink.com 1.10,2013-08-14 02:48:00,
2013-08-13 22:03:00,56.2,50.0,30.16,North,355,0.0,0.0,79,0.00,,,0.00,0,weatherlink.com 1.10,2013-08-14 03:03:00,
2013-08-13 22:18:00,55.5,49.0,30.16,North,355,0.0,1.0,79,0.00,,,0.00,0,weatherlink.com 1.10,2013-08-14 03:18:00,
2013-08-13 22:33:00,54.9,49.0,30.17,ENE,78,0.0,2.0,81,0.00,,,0.00,0,weatherlink.com 1.10,2013-08-14 03:33:00,
2013-08-13 22:48:00,54.7,50.0,30.18,ENE,78,0.0,1.0,84,0.00,,,0.00,0,weatherlink.com 1.10,2013-08-14 03:48:00,
2013-08-13 23:03:00,53.3,49.0,30.18,ENE,78,0.0,0.0,86,0.00,,,0.00,0,weatherlink.com 1.10,2013-08-14 04:03:00,
2013-08-13 23:19:00,52.2,49.0,30.19,ENE,78,0.0,0.0,87,0.00,,,0.00,0,weatherlink.com 1.10,2013-08-14 04:19:00,
2013-08-13 23:34:00,51.8,49.0,30.19,ENE,78,0.0,0.0,89,0.00,,,0.00,0,weatherlink.com 1.10,2013-08-14 04:34:00,
2013-08-13 23:49:00,50.8,48.0,30.20,ENE,78,0.0,0.0,89,0.00,,,0.00,0,weatherlink.com 1.10,2013-08-14 04:49:00,